Location: Foxtrotter Observatory
(29.3381°N, 82.2844°W)
Time: 16:39:09
(UTC-05:00)

Tiangong 2 - Visible Passes

Search period start: 18 November 2017 00:00
Search period end: 28 November 2017 00:00
Orbit: 386 x 391 km, 42.8° (Epoch: 18 November)

Date Brightness Start Highest point End Pass type
(mag) Time Alt. Az. Time Alt. Az. Time Alt. Az.
23 Nov 4.3 06:00:17 10° SSE 06:01:46 13° SE 06:03:16 10° ESE visible
24 Nov 1.6 06:36:59 10° SW 06:40:08 65° SE 06:43:19 10° ENE visible
25 Nov 3.1 05:39:13 10° SSW 05:42:01 29° SE 05:44:50 10° ENE visible
26 Nov 4.4 04:44:54 13° ESE 04:44:54 13° ESE 04:45:42 10° ESE visible
26 Nov 1.3 06:17:25 10° WSW 06:20:31 51° NNW 06:23:39 10° NE visible
27 Nov 1.7 05:22:50 56° E 05:22:50 56° E 05:25:29 10° ENE visible
